Regional Weather Roundup
Issued by NWS

Home | Current Version | Previous Version | Graphics & Text | Print | Product List | Glossary On
Versions: 1 2 3 4 5 6 7 8 9 10 11 12 13 14 15 16 17 18 19 20 21 22 23 24 25 26 27 28 29 30 31 32 33 34 35 36 37 38 39 40 41 42 43 44 45 46 47 48 49 50
000
ASUS43 KOAX 241710
RWRNE

WEATHER ROUNDUP FOR NEBRASKA
NATIONAL WEATHER SERVICE OMAHA NE
1100 AM CST FRI NOV 24 2017

NOTES: SATELLITE DATA IS BEING USED TO AUGMENT CLOUD COVER ABOVE
       12000 FEET.
       "FAIR" INDICATES FEW OR NO CLOUDS BELOW 12,000 FEET WITH NO
       SIGNIFICANT WEATHER AND/OR OBSTRUCTIONS TO VISIBILITY.


NEZ001>004-019>022-054>056-241800-
NEBRASKA PANHANDLE

CITY           SKY/WX    TMP DP  RH WIND       PRES   REMARKS
SCOTTSBLUFF    CLOUDY    56  35  45 N22       29.85R
ALLIANCE       CLOUDY    56  37  49 N28G39    29.81R
CHADRON        CLOUDY    61  36  39 NW18G31   29.83R
GORDON         CLOUDY    55  38  54 N20G28    29.79R
KIMBALL        CLOUDY    61  30  31 W20G28    29.85S
SIDNEY         CLOUDY    63  30  28 W10       29.83R
$$

NEZ057>060-069>072-079>082-241800-
SOUTHWEST NEBRASKA

CITY           SKY/WX    TMP DP  RH WIND       PRES   REMARKS
NORTH PLATTE   CLOUDY    64  39  39 W18       29.71R
IMPERIAL       CLOUDY    73  30  20 NW23G32   29.77R
LEXINGTON      SUNNY     73  36  25 NW29      29.66S
MCCOOK         SUNNY     71  37  28 W15       29.70S
OGALLALA       CLOUDY    63  36  37 W7        29.76R
$$

NEZ005>010-023>029-035>040-094-241800-
NORTH CENTRAL NEBRASKA

CITY           SKY/WX    TMP DP  RH WIND       PRES   REMARKS
VALENTINE      PTSUNNY   60  38  43 NW32G39   29.72R
AINSWORTH      PTSUNNY   60  38  45 N25G47    29.71R
BROKEN BOW     SUNNY     68  37  32 NW31G59   29.66R
O`NEILL        SUNNY     63  39  41 N31G44    29.63R
ORD            SUNNY     69  38  32 NW37G55   29.60R
THEDFORD       SUNNY     61  39  43 N21G37    29.75R
$$

NEZ041-046>049-061>064-073>077-083>087-241800-
SOUTH CENTRAL NEBRASKA

CITY           SKY/WX    TMP DP  RH WIND       PRES   REMARKS
GRAND ISLAND   SUNNY     70  39  32 W23G31    29.58R
AURORA         SUNNY     70  37  29 W21G31    29.56F
HASTINGS       SUNNY     69  36  29 W22G30    29.61R
HEBRON         SUNNY     71  37  29 W12G21    29.60S
HOLDREGE       SUNNY     74  39  28 W25G36    29.65S
KEARNEY        SUNNY     71  38  29 W25G31    29.63R
YORK           SUNNY     72  39  30 W23G31    29.55S
$$

NEZ011>018-030>034-042>045-241800-
NORTHEAST NEBRASKA

CITY           SKY/WX    TMP DP  RH WIND       PRES   REMARKS
NORFOLK        SUNNY     66  40  38 NW22G30   29.50R
ALBION         SUNNY     69  40  34 NW32G43   29.55R
BLAIR          SUNNY     64  42  45 SW15      29.48F
COLUMBUS       SUNNY     65  41  41 W12       29.52R
FREMONT        SUNNY     65  39  37 W17G24    29.50R
TEKAMAH        SUNNY     63  40  42 W9        29.46F
WAYNE          SUNNY     64  37  36 NW24G30   29.50R
$$

NEZ050>053-065>068-078-088>093-241800-
SOUTHEAST NEBRASKA

CITY           SKY/WX    TMP DP  RH WIND       PRES   REMARKS
LINCOLN        SUNNY     70  39  32 W14G20    29.53F
OMAHA EPPLEY   MOSUNNY   64  40  41 SW6       29.49F
BEATRICE       SUNNY     67  42  39 SW13      29.57F
FALLS CITY     SUNNY     67  40  37 SW16      29.55F
NEBRASKA CITY  SUNNY     66  41  39 W17G24    29.53F
PLATTSMOUTH    SUNNY     66  41  40 SW12      29.51S
$$

NEZ044-045-051>053-067-241800-
OMAHA AREA

CITY           SKY/WX    TMP DP  RH WIND       PRES   REMARKS
OMAHA EPPLEY   MOSUNNY   64  40  41 SW6       29.49F
BLAIR          SUNNY     64  42  45 SW15      29.48F
FREMONT        SUNNY     65  39  37 W17G24    29.50R
MILLARD        SUNNY     65  42  42 W9        29.49F
OFFUTT AFB     SUNNY     65  40  39 W9        29.49F
PLATTSMOUTH    SUNNY     66  41  40 SW12      29.51S
WAHOO          FAIR      69  38  32 W20G26    29.49S
$$




USA.gov is the U.S. government's official web portal to all federal, state and local government web resources and services.